timestamp,surface_pressure_avg,surface_temp_avg,battery_voltage,lat,long
2024-04-19 00:09:00+00:00,260.2198,1.0,12.01,47.84626,-54.09684
2024-04-19 00:19:00+00:00,256.2597,1.0,12.01,47.84626,-54.09684
2024-04-19 00:29:00+00:00,253.9831,1.01,12.01,47.84626,-54.09684
2024-04-19 00:39:00+00:00,251.4831,1.02,12.01,47.84626,-54.09684
2024-04-19 00:49:00+00:00,245.2081,1.01,12.01,47.84626,-54.09684
2024-04-19 00:59:00+00:00,240.7681,1.05,12.01,47.84626,-54.09684
2024-04-19 01:09:00+00:00,239.0331,1.05,12.01,47.84626,-54.09684
2024-04-19 01:19:00+00:00,235.8214,1.06,12.01,47.84626,-54.09684
2024-04-19 01:29:00+00:00,228.2781,1.06,12.01,47.84626,-54.09684
2024-04-19 01:39:00+00:00,229.2181,1.07,12.01,47.84626,-54.09684
2024-04-19 01:49:00+00:00,234.3131,1.08,12.01,47.84626,-54.09684
2024-04-19 01:59:00+00:00,232.463,1.08,12.01,47.84626,-54.09684
2024-04-19 02:09:00+00:00,225.1498,1.09,12.01,47.84626,-54.09684
2024-04-19 02:19:00+00:00,227.3047,1.09,12.01,47.84626,-54.09684
2024-04-19 02:29:00+00:00,230.5114,1.09,12.01,47.84626,-54.09684
2024-04-19 02:39:00+00:00,227.8665,1.09,12.01,47.84626,-54.09684
2024-04-19 02:49:00+00:00,228.1764,1.09,12.01,47.84626,-54.09684
2024-04-19 02:59:00+00:00,235.3448,1.1,12.01,47.84626,-54.09684
2024-04-19 03:09:00+00:00,238.6848,1.09,12.01,47.84626,-54.09684
2024-04-19 03:19:00+00:00,235.3997,1.09,12.01,47.84626,-54.09684
2024-04-19 03:29:00+00:00,235.4731,1.1,12.01,47.84626,-54.09684
2024-04-19 03:39:00+00:00,240.4997,1.1,12.01,47.84626,-54.09684
2024-04-19 03:49:00+00:00,240.3181,1.1,12.01,47.84626,-54.09684
2024-04-19 03:59:00+00:00,236.9264,1.1,12.01,47.84626,-54.09684
2024-04-19 04:09:00+00:00,240.9398,1.1,12.01,47.84626,-54.09684
2024-04-19 04:19:00+00:00,245.8464,1.1,12.01,47.84626,-54.09684
2024-04-19 04:29:00+00:00,243.8098,1.09,12.01,47.84626,-54.09684
2024-04-19 04:39:00+00:00,244.5514,1.09,12.01,47.84626,-54.09684
2024-04-19 04:49:00+00:00,250.0614,1.1,12.01,47.84626,-54.09684
2024-04-19 04:59:00+00:00,252.7531,1.1,12.01,47.84626,-54.09684
2024-04-19 05:09:00+00:00,252.178,1.09,12.01,47.84626,-54.09684
2024-04-19 05:19:00+00:00,256.8047,1.1,12.01,47.84626,-54.09684
2024-04-19 05:29:00+00:00,265.9947,1.09,12.01,47.84626,-54.09684
2024-04-19 05:39:00+00:00,268.2114,1.01,12.01,47.84626,-54.09684
2024-04-19 05:49:00+00:00,268.6481,1.04,12.01,47.84626,-54.09684
2024-04-19 05:59:00+00:00,278.0764,1.05,12.01,47.84626,-54.09684
2024-04-19 06:09:00+00:00,288.038,1.04,12.01,47.84626,-54.09684
2024-04-19 06:19:00+00:00,289.0231,1.03,12.01,47.84626,-54.09684
2024-04-19 06:29:00+00:00,290.7581,1.04,12.01,47.84626,-54.09684
2024-04-19 06:39:00+00:00,300.6797,1.05,12.01,47.84626,-54.09684
2024-04-19 06:49:00+00:00,307.418,1.05,12.01,47.84626,-54.09684
2024-04-19 06:59:00+00:00,308.4497,1.05,12.01,47.84626,-54.09684
2024-04-19 07:09:00+00:00,314.6614,1.06,12.01,47.84626,-54.09684
2024-04-19 07:19:00+00:00,320.2247,1.05,12.01,47.84626,-54.09684
2024-04-19 07:29:00+00:00,319.3229,1.06,12.01,47.84626,-54.09684
2024-04-19 07:39:00+00:00,318.5997,1.0,12.01,47.84626,-54.09684
2024-04-19 07:49:00+00:00,325.998,1.0,12.01,47.84626,-54.09684
2024-04-19 07:59:00+00:00,327.9097,1.02,12.01,47.84626,-54.09684
2024-04-19 08:09:00+00:00,326.3313,1.0,12.01,47.84626,-54.09684
2024-04-19 08:19:00+00:00,330.36300000000006,1.0,12.01,47.84626,-54.09684
2024-04-19 08:29:00+00:00,338.1746,1.03,12.01,47.84626,-54.09684
2024-04-19 08:39:00+00:00,337.6213,1.0,12.01,47.84626,-54.09684
2024-04-19 08:49:00+00:00,337.898,1.0,12.01,47.84626,-54.09684
2024-04-19 08:59:00+00:00,343.0247,1.0,12.01,47.84626,-54.09684
2024-04-19 09:09:00+00:00,344.5546,1.0,12.01,47.84626,-54.09684
2024-04-19 09:19:00+00:00,342.908,1.03,12.01,47.84626,-54.09684
2024-04-19 09:29:00+00:00,345.7729,1.06,12.01,47.84626,-54.09684
2024-04-19 09:39:00+00:00,347.6496,1.07,12.01,47.84626,-54.09684
2024-04-19 09:49:00+00:00,343.1296,1.07,12.01,47.84626,-54.09684
2024-04-19 09:59:00+00:00,339.3246,1.0,12.01,47.84626,-54.09684
2024-04-19 10:09:00+00:00,340.3063,1.0,12.01,47.84626,-54.09684
2024-04-19 10:19:00+00:00,335.1613,1.0,12.01,47.84626,-54.09684
2024-04-19 10:29:00+00:00,328.5146,1.0,12.01,47.84626,-54.09684
2024-04-19 10:39:00+00:00,324.533,1.0,12.01,47.84626,-54.09684
2024-04-19 10:49:00+00:00,321.7747,1.0,12.01,47.84626,-54.09684
2024-04-19 10:59:00+00:00,315.7697,1.0,12.01,47.84626,-54.09684
2024-04-19 11:09:00+00:00,312.2246,1.0,12.01,47.84626,-54.09684
2024-04-19 11:19:00+00:00,308.1747,1.0,12.01,47.84626,-54.09684
2024-04-19 11:29:00+00:00,302.348,1.0,12.01,47.84626,-54.09684
2024-04-19 11:39:00+00:00,294.643,1.0,12.01,47.84626,-54.09684
2024-04-19 11:49:00+00:00,290.2764,1.05,12.01,47.84626,-54.09684
2024-04-19 11:59:00+00:00,285.6763,1.09,12.01,47.84626,-54.09684
2024-04-19 12:09:00+00:00,277.6281,1.1,12.01,47.84626,-54.09684
2024-04-19 12:19:00+00:00,273.4998,1.1,12.17,47.84626,-54.09684
2024-04-19 12:29:00+00:00,273.6914,1.1,12.17,47.84626,-54.09684
2024-04-19 12:39:00+00:00,268.8598,1.14,12.17,47.84626,-54.09684
2024-04-19 12:49:00+00:00,260.3114,1.18,12.17,47.84626,-54.09684
2024-04-19 12:59:00+00:00,257.6414,1.14,12.17,47.84626,-54.09684
2024-04-19 13:09:00+00:00,256.7231,1.19,12.17,47.84626,-54.09684
2024-04-19 13:19:00+00:00,251.8997,1.2,12.41,47.84626,-54.09684
2024-04-19 13:29:00+00:00,244.5298,1.24,12.41,47.84626,-54.09684
2024-04-19 13:39:00+00:00,240.6281,1.28,12.41,47.84626,-54.09684
2024-04-19 13:49:00+00:00,234.8714,1.3,12.41,47.84626,-54.09684
2024-04-19 13:59:00+00:00,230.0764,1.3,12.41,47.84626,-54.09684
2024-04-19 14:09:00+00:00,228.2714,1.27,12.41,47.84626,-54.09684
2024-04-19 14:19:00+00:00,228.4081,1.26,12.25,47.84626,-54.09684
2024-04-19 14:29:00+00:00,224.9081,1.26,12.25,47.84626,-54.09684
2024-04-19 14:39:00+00:00,223.1248,1.29,12.25,47.84626,-54.09684
2024-04-19 14:49:00+00:00,222.8315,1.4,12.25,47.84626,-54.09684
2024-04-19 14:59:00+00:00,221.3415,1.25,12.25,47.84626,-54.09684
2024-04-19 15:09:00+00:00,220.8831,1.3,12.25,47.84626,-54.09684
2024-04-19 15:19:00+00:00,221.7181,1.34,12.33,47.84626,-54.09684
2024-04-19 15:29:00+00:00,221.8781,1.39,12.33,47.84626,-54.09684
2024-04-19 15:39:00+00:00,222.6397,1.4,12.33,47.84626,-54.09684
2024-04-19 15:49:00+00:00,223.9281,1.3,12.33,47.84626,-54.09684
2024-04-19 15:59:00+00:00,224.1948,1.29,12.33,47.84626,-54.09684
2024-04-19 16:09:00+00:00,223.2431,1.2,12.33,47.84626,-54.09684
2024-04-19 16:19:00+00:00,227.0032,1.09,12.33,47.84626,-54.09684
2024-04-19 16:29:00+00:00,232.3498,1.0,12.33,47.84626,-54.09684
2024-04-19 16:39:00+00:00,233.2215,1.19,12.33,47.84626,-54.09684
2024-04-19 16:49:00+00:00,233.7981,1.3,12.33,47.84626,-54.09684
2024-04-19 16:59:00+00:00,237.4081,1.29,12.33,47.84626,-54.09684
2024-04-19 17:09:00+00:00,241.203,1.38,12.33,47.84626,-54.09684
2024-04-19 17:19:00+00:00,240.4881,1.4,12.41,47.84626,-54.09684
2024-04-19 17:29:00+00:00,243.5381,1.4,12.41,47.84626,-54.09684
2024-04-19 17:39:00+00:00,247.1164,1.4,12.41,47.84626,-54.09684
2024-04-19 17:49:00+00:00,249.4581,1.5,12.41,47.84626,-54.09684
2024-04-19 17:59:00+00:00,252.938,1.48,12.41,47.84626,-54.09684
2024-04-19 18:09:00+00:00,259.1264,1.2,12.41,47.84626,-54.09684
2024-04-19 18:19:00+00:00,262.2064,1.2,12.41,47.84626,-54.09684
2024-04-19 18:29:00+00:00,265.988,1.27,12.41,47.84626,-54.09684
2024-04-19 18:39:00+00:00,271.4947,1.55,12.41,47.84626,-54.09684
2024-04-19 18:49:00+00:00,280.1064,1.55,12.41,47.84626,-54.09684
2024-04-19 18:59:00+00:00,286.2947,1.2,12.41,47.84626,-54.09684
2024-04-19 19:09:00+00:00,290.7814,1.2,12.41,47.84626,-54.09684
2024-04-19 19:19:00+00:00,293.9564,1.19,12.33,47.84626,-54.09684
2024-04-19 19:29:00+00:00,298.7164,1.16,12.33,47.84626,-54.09684
2024-04-19 19:39:00+00:00,304.9196,1.1,12.33,47.84626,-54.09684
2024-04-19 19:49:00+00:00,310.8313,1.1,12.33,47.84626,-54.09684
2024-04-19 19:59:00+00:00,313.4181,0.83,12.33,47.84626,-54.09684
2024-04-19 20:09:00+00:00,314.3464,1.0,12.33,47.84626,-54.09684
2024-04-19 20:19:00+00:00,317.5197,0.98,12.25,47.84626,-54.09684
2024-04-19 20:29:00+00:00,321.4547,1.09,12.25,47.84626,-54.09684
2024-04-19 20:39:00+00:00,324.4647,1.1,12.25,47.84626,-54.09684
2024-04-19 20:49:00+00:00,325.2679,1.1,12.25,47.84626,-54.09684
2024-04-19 20:59:00+00:00,326.8679,1.0,12.25,47.84626,-54.09684
2024-04-19 21:09:00+00:00,328.1646,0.94,12.25,47.84626,-54.09684
2024-04-19 21:19:01+00:00,329.8314,1.0,12.17,47.84626,-54.09684
2024-04-19 21:29:01+00:00,328.6829,0.9,12.17,47.84626,-54.09684
2024-04-19 21:39:01+00:00,326.8663,0.8,12.17,47.84626,-54.09684
2024-04-19 21:49:01+00:00,326.928,0.9,12.17,47.84626,-54.09684
2024-04-19 21:59:01+00:00,325.573,0.99,12.17,47.84626,-54.09684
2024-04-19 22:09:01+00:00,325.4646,1.02,12.17,47.84626,-54.09684
2024-04-19 22:19:00+00:00,325.348,1.13,12.17,47.84626,-54.09684
2024-04-19 22:29:00+00:00,322.9813,1.34,12.17,47.84626,-54.09684
2024-04-19 22:39:00+00:00,321.0413,1.35,12.17,47.84626,-54.09684
2024-04-19 22:49:00+00:00,319.3863,1.3,12.17,47.84626,-54.09684
2024-04-19 22:59:00+00:00,318.1213,1.27,12.17,47.84626,-54.09684
2024-04-19 23:09:00+00:00,312.5312,1.25,12.17,47.84626,-54.09684
2024-04-19 23:19:01+00:00,308.2697,1.3,12.09,47.84626,-54.09684
2024-04-19 23:29:01+00:00,304.3597,1.3,12.09,47.84626,-54.09684
2024-04-19 23:39:01+00:00,300.3947,1.3,12.09,47.84626,-54.09684
2024-04-19 23:49:01+00:00,296.453,1.3,12.09,47.84626,-54.09684
2024-04-19 23:59:01+00:00,292.6081,1.2,12.09,47.84626,-54.09684
